Temperature
2 2 2 2 2 2 2 2 2 2 2 2 2 2 2 2 2 2 2 2 2 2 2 2 2 3 3 3 2 3 3 3 3 3 3 3 3 3 4 4 4 4 4
1 1 2 2 2 2 2 2 2 2 2 2 2 2 2 2 2 1 1 1 1 1 2 2 2 2 2 2 2 2 2 2 2 2 2 2 3 3 3 3 4 4 4
1 1 1 1 1 2 2 2 1 1 1 1 1 1 1 1 1 1 1 1 1 1 1 1 1 2 2 2 2 2 2 2 2 2 2 2 2 2 2 3 3 3 3
0 0 0 0 1 1 1 1 1 1 1 1 1 1 1 1 0 0 0 1 1 1 1 1 1 1 1 1 1 1 1 1 1 1 1 2 2 2 2 2 3 3 3
0 -0 -0 -0 0 0 1 1 1 1 1 1 0 0 0 0 0 0 -0 0 0 0 0 0 0 0 0 0 1 1 1 1 1 1 1 1 1 1 1 1 2 2 3
-0 -0 -0 -0 -0 -0 -0 0 0 0 0 0 -0 -0 -0 -0 -0 -0 -1 -1 -0 -0 -0 -0 0 -0 -0 0 0 0 0 1 1 1 1 1 1 1 1 1 1 1 2
-1 -1 -1 -1 -1 -1 -1 -1 -0 -0 -0 -0 -0 -0 -0 -1 -1 -1 -1 -1 -1 -1 -1 -1 -0 -0 -0 -0 -0 -0 0 -0 -0 0 0 0 0 0 0 0 0 0 1
-1 -1 -1 -1 -1 -1 -1 -1 -1 -1 -1 -1 -1 -1 -1 -1 -1 -1 -1 -1 -1 -1 -1 -1 -1 -1 -1 -1 -0 -0 -0 -0 -0 -0 -0 -0 -0 -0 -0 -0 -0 -0 0
-2 -2 -2 -2 -2 -2 -2 -2 -2 -2 -1 -1 -1 -2 -2 -2 -2 -2 -2 -2 -2 -2 -2 -1 -1 -1 -1 -1 -1 -1 -1 -1 -1 -1 -1 -1 -1 -1 -1 -1 -0 -0 -0
-2 -2 -2 -2 -2 -2 -2 -2 -2 -2 -2 -2 -2 -2 -2 -2 -2 -2 -2 -2 -2 -2 -2 -2 -2 -2 -2 -2 -2 -2 -1 -1 -1 -1 -1 -1 -1 -1 -1 -1 -1 -1 -1
-3 -3 -3 -3 -3 -3 -3 -3 -3 -3 -3 -3 -3 -3 -3 -3 -3 -3 -3 -3 -2 -2 -2 -2 -2 -2 -2 -2 -2 -2 -2 -2 -2 -2 -2 -2 -1 -1 -1 -1 -1 -1 -1
-3 -3 -3 -3 -3 -3 -3 -3 -3 -3 -3 -3 -3 -3 -3 -3 -3 -3 -3 -3 -3 -3 -3 -3 -3 -3 -2 -2 -2 -2 -2 -2 -2 -2 -2 -2 -2 -2 -1 -1 -1 -1 -1
-3 -3 -3 -3 -3 -3 -3 -3 -3 -3 -4 -4 -4 -4 -4 -4 -4 -3 -3 -3 -3 -3 -3 -3 -3 -3 -3 -3 -3 -3 -3 -2 -2 -2 -3 -2 -2 -2 -2 -2 -2 -2 -2
-3 -3 -4 -4 -4 -4 -4 -4 -4 -4 -4 -4 -4 -4 -4 -4 -4 -4 -4 -3 -3 -3 -3 -3 -3 -3 -3 -3 -3 -3 -3 -3 -3 -3 -3 -3 -3 -2 -2 -2 -2 -2 -2
-4 -4 -4 -4 -4 -4 -4 -4 -5 -5 -5 -5 -5 -5 -5 -4 -4 -4 -4 -4 -3 -3 -3 -3 -3 -3 -3 -3 -3 -3 -3 -3 -3 -3 -3 -3 -3 -3 -2 -2 -2 -2 -2
-4 -4 -4 -4 -4 -4 -4 -4 -5 -5 -5 -5 -4 -5 -4 -4 -4 -4 -4 -4 -3 -3 -3 -3 -3 -3 -4 -4 -3 -3 -3 -3 -3 -3 -3 -3 -3 -3 -3 -3 -2 -2 -2
-5 -5 -5 -5 -5 -5 -5 -5 -5 -5 -4 -4 -4 -4 -4 -4 -4 -4 -4 -4 -3 -3 -3 -3 -4 -4 -4 -4 -4 -4 -4 -3 -3 -3 -3 -3 -3 -3 -3 -3 -3 -3 -3
-5 -5 -5 -5 -5 -5 -5 -5 -5 -5 -5 -4 -4 -4 -4 -4 -4 -4 -4 -4 -3 -3 -4 -4 -4 -4 -4 -4 -4 -4 -4 -4 -3 -4 -3 -3 -3 -3 -3 -3 -3 -3 -3
-5 -5 -5 -5 -5 -5 -5 -5 -5 -5 -5 -5 -5 -4 -4 -4 -4 -4 -4 -4 -4 -4 -4 -4 -4 -4 -4 -4 -4 -4 -4 -4 -4 -4 -4 -4 -4 -3 -3 -3 -3 -3 -3
-5 -5 -5 -5 -6 -6 -6 -6 -5 -5 -5 -5 -5 -5 -5 -5 -4 -4 -4 -4 -4 -4 -4 -4 -4 -4 -4 -4 -4 -4 -4 -4 -4 -4 -4 -4 -4 -4 -3 -3 -3 -3 -3
-6 -6 -6 -6 -6 -6 -6 -6 -6 -5 -5 -5 -5 -5 -5 -5 -5 -4 -4 -4 -4 -4 -4 -4 -4 -4 -4 -4 -4 -4 -4 -4 -4 -4 -4 -4 -4 -4 -4 -3 -3 -3 -3
-6 -6 -6 -6 -6 -6 -6 -6 -6 -5 -5 -5 -5 -5 -5 -5 -5 -5 -5 -5 -5 -5 -5 -5 -4 -4 -4 -4 -4 -4 -4 -4 -4 -4 -4 -4 -4 -4 -4 -4 -4 -3 -3
-6 -6 -6 -6 -6 -6 -6 -6 -6 -5 -5 -5 -5 -5 -5 -5 -5 -5 -5 -5 -5 -5 -5 -4 -4 -4 -4 -4 -4 -4 -4 -4 -4 -4 -4 -4 -4 -4 -4 -4 -4 -4 -4
-6 -6 -6 -6 -6 -6 -6 -6 -6 -6 -6 -6 -6 -5 -5 -5 -5 -5 -5 -5 -5 -5 -5 -5 -5 -5 -4 -4 -4 -4 -4 -4 -4 -4 -4 -4 -4 -4 -4 -4 -4 -4 -4
-6 -6 -6 -6 -6 -6 -6 -6 -6 -6 -6 -6 -6 -6 -6 -6 -5 -5 -5 -5 -5 -5 -5 -5 -5 -5 -4 -4 -4 -4 -4 -4 -4 -4 -4 -4 -4 -4 -4 -4 -4 -4 -4
-6 -6 -6 -6 -6 -6 -6 -6 -6 -6 -6 -6 -6 -6 -6 -6 -6 -5 -5 -5 -5 -5 -5 -5 -5 -5 -5 -4 -4 -4 -4 -4 -4 -4 -4 -4 -4 -4 -4 -4 -4 -4 -4
Wind_Speed
5 5 5 5 4 4 4 4 4 3 2 2 3 3 3 3 3 3 3 3 3 3 3 3 4 3 3 3 3 4 4 4 7 7 4 4 4 5 6 6 6 6 7
5 5 5 5 4 4 4 4 3 3 2 2 3 3 3 3 3 3 4 3 4 4 4 4 4 3 4 3 3 4 5 5 6 7 5 4 4 5 5 5 5 5 6
4 4 4 4 4 4 4 4 3 2 2 2 2 3 3 3 3 3 4 4 4 4 4 4 4 4 4 3 4 4 4 5 4 5 6 4 4 3 4 4 4 4 5
4 4 4 5 4 4 4 4 3 2 2 2 2 3 3 3 3 3 3 3 3 4 4 3 3 4 4 4 4 4 4 4 4 4 5 4 4 3 3 3 4 3 4
4 4 4 4 4 3 4 4 3 3 2 1 2 2 2 2 3 2 2 3 3 3 3 3 4 4 5 4 4 3 3 3 3 4 4 4 4 3 3 3 4 4 3
4 4 4 4 4 4 4 4 3 3 2 1 1 2 2 2 4 4 3 2 2 3 3 3 3 4 4 5 5 5 3 3 3 4 4 5 5 5 4 3 3 3 3
4 4 4 4 4 4 4 4 4 3 2 2 1 1 2 3 4 4 5 3 2 3 3 3 3 3 4 2 4 4 4 4 4 4 5 6 5 4 4 4 3 3 3
4 4 4 4 4 4 4 4 4 3 2 2 2 2 2 3 4 4 5 3 2 2 3 3 3 3 3 3 2 3 3 3 4 3 4 5 5 3 3 3 3 2 2
4 4 4 4 4 4 4 4 3 3 3 2 2 2 2 3 4 3 4 1 2 2 3 3 2 2 4 4 3 3 3 4 4 4 4 4 5 4 2 1 1 1 2
4 4 4 3 3 4 4 3 3 2 3 3 3 2 2 3 4 3 4 1 1 2 3 3 4 4 3 4 2 2 3 4 4 4 4 4 3 3 3 2 2 2 1
4 4 4 4 3 3 3 2 2 3 3 3 3 3 3 3 4 5 5 2 1 2 2 2 2 4 5 5 4 3 3 3 3 3 2 2 2 2 2 2 1 2 2
3 3 4 4 4 3 3 3 2 2 2 2 3 3 3 3 4 5 6 5 4 1 2 2 2 5 6 6 5 4 4 4 2 2 2 2 2 2 2 2 1 1 1
3 3 3 4 4 4 3 3 2 2 2 2 2 3 3 3 4 6 6 6 6 3 2 3 4 5 5 4 5 5 4 2 2 2 2 2 2 2 2 1 2 1 2
2 3 3 3 4 4 3 3 2 2 2 2 2 3 3 3 3 3 3 3 4 3 2 2 4 5 4 4 4 4 3 2 2 2 2 2 2 2 2 1 1 1 1
2 2 3 3 3 3 3 3 3 2 2 2 2 2 3 3 5 7 4 3 2 2 1 1 2 2 2 3 3 3 3 2 2 2 2 2 2 2 2 1 1 0 0
2 2 2 2 2 2 3 4 6 5 6 6 5 5 4 5 7 7 7 6 6 4 3 2 2 2 2 3 3 3 3 3 3 2 2 1 1 1 1 1 0 0 0
1 2 2 2 2 2 2 3 4 5 7 7 8 8 7 7 7 7 7 6 5 5 2 2 2 2 2 2 3 3 3 3 3 2 2 2 1 1 1 1 1 0 0
1 2 2 1 1 2 2 2 2 3 4 4 6 8 8 8 7 7 6 5 4 4 2 2 2 2 3 3 3 3 3 3 2 2 2 2 2 1 1 0 1 0 0
1 1 1 1 1 1 2 2 2 3 3 3 4 5 8 8 7 8 7 4 3 3 3 3 2 2 3 3 3 3 3 2 2 2 2 2 1 1 1 1 0 1 1
1 2 3 2 1 2 2 2 2 2 3 3 4 4 5 5 4 5 5 4 3 3 3 3 3 3 3 3 3 3 3 2 2 2 1 1 1 1 1 0 0 0 0
1 2 3 2 1 1 1 2 2 2 2 3 3 4 7 4 4 4 4 4 4 4 4 4 3 3 3 3 2 3 3 2 2 2 2 1 1 1 1 1 0 0 1
0 1 1 1 1 1 2 2 2 2 2 3 3 4 7 5 4 4 4 4 4 4 4 3 3 3 3 3 3 3 2 2 2 2 2 1 1 1 1 1 1 0 1
1 1 1 1 1 2 2 2 2 2 2 3 3 3 4 4 4 4 4 4 4 4 4 4 4 4 4 3 3 2 2 2 2 2 1 1 1 1 1 1 1 0 1
1 1 1 1 1 1 1 2 2 2 2 2 3 3 3 3 4 4 4 4 4 4 4 4 4 5 6 5 4 3 3 2 2 1 1 0 0 1 0 0 0 0 1
1 1 1 1 1 1 1 2 2 2 2 2 2 3 3 3 3 4 4 4 5 5 5 5 4 5 6 6 5 4 5 4 3 2 1 1 1 1 0 0 1 1 1
1 1 0 0 1 1 1 1 2 2 2 2 2 2 3 3 3 4 4 4 4 5 5 5 6 6 6 5 6 6 6 5 4 3 2 2 2 1 1 1 2 2 2
Wind_Direction
306 304 304 301 298 293 275 266 268 268 257 253 254 258 262 261 256 253 262 267 266 274 274 260 264 258 248 254 258 259 260 257 270 282 272 271 273 281 291 285 279 275 274
311 314 311 309 309 302 291 280 276 270 259 255 257 258 260 261 253 250 257 259 257 262 266 265 272 275 261 251 253 257 261 259 262 280 283 275 271 273 278 282 285 280 275
318 318 317 315 310 307 308 306 296 281 270 264 257 263 265 264 256 251 250 253 254 261 265 262 272 273 275 268 258 257 262 264 263 267 279 278 274 281 285 285 283 281 284
323 323 317 307 304 309 318 311 304 295 279 266 267 266 262 259 254 253 262 271 273 277 276 271 270 266 265 264 265 261 263 264 263 262 274 283 281 274 271 281 296 292 289
328 322 310 307 313 321 325 316 311 305 297 286 285 280 273 263 257 258 267 280 285 293 289 279 275 278 277 271 271 263 260 261 262 267 274 282 284 281 280 278 282 297 297
324 317 318 324 327 326 326 324 322 314 308 296 283 288 295 298 308 316 308 282 285 285 285 293 294 290 288 291 289 284 278 270 271 278 282 276 283 283 289 285 282 290 291
322 326 328 327 327 329 330 327 324 316 319 311 299 289 287 292 311 320 324 308 288 283 287 298 305 305 310 298 302 310 313 304 282 273 280 281 279 275 271 273 276 278 280
326 330 330 328 327 329 326 327 329 332 332 326 315 303 299 299 321 330 335 330 320 304 294 285 288 300 303 307 310 315 311 308 300 292 286 289 288 275 251 253 258 284 297
332 331 328 325 325 328 327 328 325 331 336 329 315 310 301 298 320 339 351 330 322 316 310 305 306 296 308 320 319 316 319 322 330 321 313 313 309 304 292 278 271 268 292
326 326 329 328 325 322 318 321 329 335 334 332 333 333 317 303 319 348 352 315 322 321 312 307 314 320 321 327 323 310 309 314 325 333 337 339 340 333 313 276 254 255 267
329 338 342 339 328 321 328 332 337 343 345 342 345 338 328 326 334 344 343 341 315 310 314 315 323 337 334 331 328 320 315 317 317 320 323 337 340 340 337 315 269 235 237
340 348 347 342 338 341 346 339 337 350 0 357 358 347 344 339 342 345 348 347 338 304 300 307 321 336 337 339 341 346 339 334 330 333 328 328 328 325 319 315 312 282 239
351 351 345 345 344 342 340 335 336 345 358 351 355 350 345 345 344 353 350 348 347 342 321 334 340 341 342 348 356 352 344 345 347 336 324 318 321 320 323 338 355 8 2
347 343 348 350 345 345 343 340 340 339 341 341 350 347 341 339 338 339 338 342 348 341 339 354 358 358 359 356 351 351 347 344 337 317 315 322 331 337 332 336 336 338 350
344 347 348 346 341 345 349 344 339 326 321 329 323 322 328 332 334 343 347 342 337 345 7 30 22 7 6 358 349 346 346 347 342 330 327 329 334 336 333 338 330 329 337
343 344 339 336 343 351 354 359 0 358 357 0 358 350 343 342 340 347 350 351 353 5 23 30 12 357 347 340 336 339 343 343 335 331 331 324 322 321 321 329 0 41 349
309 318 325 335 342 343 349 360 355 360 5 11 11 6 4 356 352 354 357 4 14 24 36 22 351 337 334 331 332 330 329 332 332 335 341 338 332 332 331 347 6 16 22
315 319 332 321 325 329 338 345 345 348 351 357 2 6 7 5 3 4 6 16 22 22 17 360 338 332 333 334 331 327 326 334 344 348 352 352 348 348 359 3 355 343 13
328 326 334 337 343 345 348 351 353 351 357 350 351 359 4 5 9 16 21 26 16 5 359 353 343 336 333 332 329 325 326 330 339 349 354 356 350 355 359 353 346 30 52
336 347 359 3 4 3 360 0 2 359 0 356 351 347 348 359 11 9 11 9 6 355 350 348 343 336 331 328 329 327 329 335 342 348 343 347 346 346 349 352 38 82 74
352 352 1 8 3 356 354 357 358 357 357 350 343 345 357 5 6 2 359 357 354 348 345 343 337 333 335 333 334 334 335 338 343 342 341 340 338 346 353 5 22 87 107
24 3 1 -0 0 356 357 3 3 3 0 353 348 353 7 14 8 4 359 353 348 347 345 343 343 343 340 337 334 335 336 337 337 340 341 341 347 352 358 19 16 43 118
64 31 16 8 7 7 15 13 8 5 359 353 353 358 1 3 0 357 353 349 351 351 354 359 356 352 350 347 341 328 318 316 318 318 331 338 341 351 12 39 44 72 117
93 65 45 24 23 21 14 7 3 3 360 356 357 358 356 355 352 351 350 349 353 353 356 359 358 351 348 350 348 345 340 338 340 342 309 262 323 351 21 54 44 113 119
109 94 64 41 34 21 12 6 3 5 358 350 353 354 352 353 353 352 351 352 353 354 354 357 1 356 351 350 353 354 353 356 1 22 61 92 107 95 92 79 71 86 101
109 85 51 40 32 17 8 3 357 354 347 343 345 347 348 351 351 349 350 354 354 353 352 355 355 352 349 354 358 359 360 6 13 18 64 91 99 102 101 96 96 96 101
Height
1437 1436 1435 1434 1433 1432 1431 1431 1429 1428 1427 1427 1427 1427 1427 1427 1427 1427 1426 1426 1426 1426 1426 1426 1427 1427 1427 1427 1427 1428 1427 1427 1424 1422 1422 1422 1422 1422 1422 1422 1421 1421 1421
1434 1433 1432 1430 1429 1429 1428 1427 1425 1424 1424 1424 1424 1423 1423 1423 1423 1422 1422 1422 1422 1422 1422 1422 1422 1422 1422 1422 1422 1422 1422 1421 1421 1417 1417 1417 1417 1417 1417 1417 1416 1416 1416
1432 1430 1429 1427 1426 1425 1424 1422 1421 1421 1420 1420 1420 1419 1419 1419 1419 1419 1419 1418 1418 1418 1418 1418 1417 1417 1417 1417 1417 1417 1417 1416 1416 1414 1413 1412 1413 1413 1413 1412 1412 1411 1411
1429 1427 1426 1424 1423 1422 1421 1419 1418 1417 1416 1416 1416 1416 1415 1415 1415 1415 1415 1415 1415 1415 1415 1414 1414 1414 1414 1413 1413 1412 1412 1411 1411 1410 1409 1409 1408 1409 1409 1408 1407 1407 1407
1427 1425 1423 1422 1420 1419 1418 1417 1415 1414 1413 1413 1413 1412 1412 1412 1412 1412 1412 1412 1411 1411 1411 1411 1411 1411 1410 1410 1410 1409 1408 1407 1407 1406 1406 1405 1405 1405 1405 1404 1403 1403 1403
1424 1422 1421 1420 1418 1417 1415 1414 1413 1412 1411 1410 1410 1409 1409 1409 1409 1409 1409 1409 1409 1408 1408 1408 1407 1407 1407 1407 1406 1406 1405 1404 1404 1403 1402 1402 1401 1402 1401 1401 1400 1399 1399
1422 1420 1419 1418 1416 1415 1413 1412 1410 1409 1408 1408 1407 1407 1406 1406 1406 1406 1407 1407 1406 1406 1406 1405 1405 1405 1404 1403 1402 1402 1402 1402 1402 1401 1399 1399 1398 1398 1398 1397 1397 1397 1396
1420 1419 1417 1416 1414 1413 1412 1410 1408 1407 1406 1405 1404 1404 1403 1403 1404 1404 1404 1404 1403 1403 1403 1403 1402 1402 1401 1401 1400 1399 1398 1398 1398 1397 1396 1396 1395 1395 1395 1395 1394 1394 1394
1419 1417 1416 1414 1413 1411 1410 1408 1407 1406 1405 1404 1403 1402 1401 1401 1402 1402 1402 1401 1401 1400 1400 1400 1399 1399 1398 1398 1397 1396 1395 1395 1395 1394 1393 1392 1392 1392 1392 1393 1392 1392 1391
1417 1416 1415 1413 1411 1410 1408 1407 1405 1404 1403 1402 1401 1401 1400 1399 1399 1399 1400 1399 1398 1398 1397 1397 1397 1396 1396 1395 1395 1394 1393 1392 1392 1391 1390 1390 1389 1390 1390 1391 1390 1390 1390
1416 1415 1413 1412 1410 1409 1407 1406 1404 1403 1402 1401 1400 1399 1399 1398 1398 1398 1398 1398 1397 1396 1395 1394 1394 1394 1394 1393 1393 1392 1391 1390 1389 1389 1388 1387 1387 1387 1388 1388 1388 1389 1388
1415 1413 1412 1410 1409 1407 1406 1405 1403 1402 1400 1399 1399 1398 1398 1397 1397 1396 1396 1396 1395 1394 1393 1392 1392 1392 1392 1391 1390 1390 1389 1388 1387 1386 1386 1385 1385 1385 1385 1385 1386 1386 1387
1414 1412 1411 1409 1408 1406 1405 1404 1402 1401 1399 1398 1398 1397 1396 1396 1396 1395 1395 1394 1394 1393 1391 1391 1390 1390 1390 1389 1388 1388 1387 1386 1385 1385 1384 1384 1384 1384 1384 1384 1384 1384 1385
1412 1411 1409 1408 1407 1405 1404 1403 1401 1400 1399 1398 1397 1396 1396 1395 1395 1394 1393 1393 1392 1391 1390 1390 1389 1388 1388 1387 1387 1386 1386 1385 1384 1384 1383 1383 1382 1382 1382 1382 1382 1382 1383
1411 1410 1409 1407 1406 1404 1403 1402 1401 1400 1399 1398 1397 1396 1395 1394 1394 1394 1393 1392 1391 1390 1389 1388 1387 1386 1386 1385 1385 1385 1384 1383 1383 1382 1382 1381 1381 1380 1380 1380 1381 1381 1381
1410 1409 1408 1406 1405 1404 1402 1401 1401 1400 1399 1398 1397 1396 1395 1394 1393 1392 1391 1391 1390 1389 1388 1387 1386 1385 1385 1384 1384 1383 1383 1382 1381 1381 1380 1380 1379 1379 1379 1379 1380 1380 1380
1409 1408 1407 1405 1404 1403 1402 1400 1399 1399 1398 1397 1396 1396 1395 1393 1392 1391 1390 1389 1388 1388 1387 1386 1386 1385 1384 1384 1383 1382 1382 1381 1381 1380 1379 1379 1378 1378 1378 1378 1378 1379 1379
1408 1407 1406 1405 1404 1403 1402 1400 1399 1398 1397 1396 1396 1395 1394 1393 1392 1390 1389 1389 1387 1387 1386 1385 1385 1385 1384 1383 1383 1382 1381 1381 1380 1380 1379 1378 1378 1377 1377 1377 1377 1378 1378
1407 1406 1405 1404 1403 1402 1401 1400 1399 1398 1397 1396 1396 1395 1394 1393 1392 1391 1390 1388 1387 1386 1386 1385 1385 1384 1383 1383 1382 1382 1381 1380 1380 1379 1378 1378 1377 1377 1376 1376 1377 1377 1377
1406 1406 1405 1404 1403 1402 1401 1400 1400 1399 1398 1397 1396 1395 1394 1393 1391 1390 1390 1389 1388 1387 1386 1386 1385 1384 1384 1383 1382 1381 1381 1380 1379 1379 1378 1377 1377 1376 1376 1376 1376 1376 1377
1406 1405 1405 1404 1403 1402 1401 1401 1400 1399 1398 1397 1397 1396 1395 1393 1392 1391 1390 1390 1389 1388 1387 1386 1385 1384 1383 1383 1382 1381 1380 1380 1379 1378 1377 1377 1376 1376 1376 1375 1375 1376 1376
1406 1405 1404 1404 1403 1402 1401 1401 1400 1400 1399 1398 1397 1396 1396 1394 1393 1392 1392 1391 1390 1389 1388 1387 1386 1385 1384 1383 1382 1381 1380 1379 1379 1378 1377 1376 1376 1376 1375 1375 1375 1375 1375
1405 1405 1404 1403 1403 1402 1402 1401 1400 1400 1399 1398 1397 1396 1396 1395 1394 1394 1393 1392 1391 1390 1389 1387 1386 1385 1384 1383 1382 1381 1380 1379 1379 1378 1377 1376 1376 1375 1375 1375 1375 1375 1375
1405 1404 1403 1403 1403 1402 1402 1401 1401 1400 1400 1399 1398 1397 1396 1396 1395 1394 1393 1392 1391 1390 1389 1388 1387 1386 1385 1383 1382 1381 1380 1379 1379 1378 1377 1376 1376 1375 1375 1375 1375 1375 1375
1404 1404 1403 1403 1402 1402 1402 1401 1401 1400 1400 1399 1398 1398 1397 1396 1395 1395 1394 1393 1392 1391 1390 1388 1387 1386 1385 1384 1383 1381 1380 1379 1378 1377 1377 1376 1376 1375 1375 1375 1375 1375 1376
1404 1404 1403 1403 1402 1402 1402 1401 1401 1400 1400 1400 1399 1398 1397 1397 1396 1395 1394 1394 1392 1391 1390 1389 1388 1387 1385 1384 1383 1382 1381 1379 1379 1378 1377 1377 1376 1376 1376 1376 1376 1376 1377